Weather History for KCDD - March, 2012

Change the Weather History Date:

Friday, March 2, 2012

  Actual Average Record
Temperature  
Mean Temperature 30 °F -  
Max Temperature 35 °F 24 °F 44 °F (2001)
Min Temperature 26 °F 3 °F -38 °F (2014)
Degree Days  
Heating Degree Days 34    
Moisture  
Dew Point 25 °F    
Average Humidity 81    
Maximum Humidity 100    
Minimum Humidity 56    
Precipitation  
Precipitation 0.00 in - - ()
Sea Level Pressure  
Sea Level Pressure 29.62 in    
Wind  
Wind Speed 1 mph (South)    
Max Wind Speed 6 mph    
Max Gust Speed -    
Visibility 9 miles    
Events Snow    
Averages and records for this station are not official NWS values.
T = Trace of Precipitation, MM = Missing Value Source: NWS Daily Summary

Daily Weather History Graph

Daily Weather History Graph

Search for Another Location

Airport or City:

Trip Planner

Search our weather history database for the weather conditions in past years. The results will help you decide how hot, cold, wet, or windy it might be!

Date:

Astronomy

Mar. 02, 2012 Rise Set
Actual Time 6:48 AM CST 5:56 PM CST
Civil Twilight 6:16 AM CST 6:27 PM CST
Nautical Twilight 5:40 AM CST 7:03 PM CST
Astronomical Twilight 5:04 AM CST 7:40 PM CST
Moon 11:47 AM CST (3/2) 3:00 AM CST (3/2)
Length of Visible Light 12h 10m
Length of Day
11h 08m
Waxing Gibbous, 66% of the Moon is Illuminated
Mar 2
Waxing Gibbous
Mar 8
Full
Mar 14
Last Quarter
Mar 22
New
Mar 30
First Quarter

Hourly Weather History & Observations

Time (CST) Temp. Windchill Dew Point Humidity Pressure Visibility Wind Dir Wind Speed Gust Speed Precip Events Conditions
12:03 AM 28.4 °F - 24.8 °F 86% 29.71 in 10.0 mi Calm Calm - N/A   Mostly Cloudy
12:22 AM 26.6 °F - 24.8 °F 93% 29.71 in 10.0 mi Calm Calm - N/A   Mostly Cloudy
12:42 AM 28.4 °F - 24.8 °F 86% 29.71 in 10.0 mi Calm Calm - N/A   Mostly Cloudy
1:02 AM 28.4 °F - 24.8 °F 86% 29.70 in 10.0 mi Calm Calm - N/A   Mostly Cloudy
1:22 AM 28.4 °F - 24.8 °F 86% 29.69 in 5.0 mi Calm Calm - N/A Snow Light Snow
1:42 AM 28.4 °F - 24.8 °F 86% 29.69 in 3.0 mi Calm Calm - N/A Snow Light Snow
2:02 AM 26.6 °F - 24.8 °F 93% 29.69 in 1.0 mi Calm Calm - N/A Snow Light Snow
2:22 AM 26.6 °F - 24.8 °F 93% 29.68 in 4.0 mi Calm Calm - N/A Snow Light Snow
2:43 AM 26.6 °F - 26.6 °F 100% 29.67 in 10.0 mi Calm Calm - N/A Snow Light Snow
3:02 AM 28.4 °F - 26.6 °F 93% 29.67 in 10.0 mi Calm Calm - N/A   Mostly Cloudy
3:22 AM 26.6 °F - 24.8 °F 93% 29.66 in 10.0 mi Calm Calm - N/A Snow Light Snow
3:43 AM 28.4 °F - 26.6 °F 93% 29.66 in 10.0 mi Calm Calm - N/A   Scattered Clouds
4:03 AM 28.4 °F - 26.6 °F 93% 29.65 in 10.0 mi Calm Calm - N/A   Mostly Cloudy
4:22 AM 28.4 °F - 26.6 °F 93% 29.65 in 10.0 mi Calm Calm - N/A   Scattered Clouds
4:43 AM 28.4 °F - 26.6 °F 93% 29.65 in 5.0 mi Calm Calm - N/A   Mostly Cloudy
5:02 AM 28.4 °F - 26.6 °F 93% 29.65 in 7.0 mi Calm Calm - N/A   Mostly Cloudy
5:23 AM 28.4 °F - 26.6 °F 93% 29.65 in 7.0 mi Calm Calm - N/A   Overcast
5:43 AM 28.4 °F - 26.6 °F 93% 29.65 in 7.0 mi Calm Calm - N/A   Overcast
6:02 AM 28.4 °F - 26.6 °F 93% 29.65 in 4.0 mi Calm Calm - N/A   Overcast
6:23 AM 28.4 °F - 26.6 °F 93% 29.64 in 5.0 mi Calm Calm - N/A   Overcast
6:42 AM 28.4 °F - 26.6 °F 93% 29.64 in 10.0 mi Calm Calm - N/A   Overcast
7:03 AM 28.4 °F - 26.6 °F 93% 29.64 in 10.0 mi Calm Calm - N/A   Overcast
7:22 AM 28.4 °F - 26.6 °F 93% 29.64 in 10.0 mi Calm Calm - N/A   Mostly Cloudy
7:42 AM 28.4 °F - 28.4 °F 100% 29.64 in 10.0 mi Calm Calm - N/A   Mostly Cloudy
8:02 AM 30.2 °F - 28.4 °F 93% 29.63 in 10.0 mi Calm Calm - N/A   Mostly Cloudy
8:22 AM 30.2 °F 26.7 °F 28.4 °F 93% 29.63 in 10.0 mi South 3.5 mph - N/A   Mostly Cloudy
8:42 AM 30.2 °F 25.4 °F 28.4 °F 93% 29.62 in 10.0 mi SSE 4.6 mph - N/A   Scattered Clouds
9:02 AM 30.2 °F 25.4 °F 26.6 °F 86% 29.63 in 10.0 mi South 4.6 mph - N/A   Scattered Clouds
9:22 AM 30.2 °F 26.7 °F 26.6 °F 86% 29.62 in 10.0 mi South 3.5 mph - N/A   Scattered Clouds
9:42 AM 32.0 °F 27.5 °F 26.6 °F 80% 29.62 in 10.0 mi South 4.6 mph - N/A   Scattered Clouds
10:02 AM 32.0 °F - 26.6 °F 80% 29.61 in 10.0 mi Calm Calm - N/A   Scattered Clouds
10:22 AM 32.0 °F - 24.8 °F 75% 29.61 in 10.0 mi Calm Calm - N/A   Scattered Clouds
10:42 AM 33.8 °F 29.6 °F 24.8 °F 70% 29.61 in 10.0 mi South 4.6 mph - N/A   Overcast
11:02 AM 33.8 °F 30.8 °F 23.0 °F 65% 29.61 in 10.0 mi South 3.5 mph - N/A   Overcast
11:22 AM 33.8 °F 30.8 °F 23.0 °F 65% 29.60 in 10.0 mi SSE 3.5 mph - N/A   Overcast
11:42 AM 33.8 °F 28.6 °F 23.0 °F 65% 29.60 in 10.0 mi SSW 5.8 mph - N/A   Overcast
12:02 PM 33.8 °F 30.8 °F 24.8 °F 70% 29.59 in 10.0 mi SSE 3.5 mph - N/A   Mostly Cloudy
12:22 PM 33.8 °F 29.6 °F 23.0 °F 65% - 10.0 mi SSE 4.6 mph - N/A   Mostly Cloudy
12:42 PM 35.6 °F 32.8 °F 23.0 °F 60% 29.57 in 10.0 mi South 3.5 mph - N/A   Mostly Cloudy
1:03 PM 33.8 °F 28.6 °F 24.8 °F 70% 29.56 in 10.0 mi SSE 5.8 mph - N/A   Overcast
2:02 PM 33.8 °F - 23.0 °F 65% 29.54 in 10.0 mi Calm Calm - N/A   Overcast
2:42 PM 35.6 °F 30.7 °F 23.0 °F 60% 29.55 in 10.0 mi SSE 5.8 mph - N/A   Mostly Cloudy
3:02 PM 33.8 °F - 21.2 °F 60% 29.54 in 10.0 mi Calm Calm - N/A   Overcast
3:22 PM 35.6 °F - 21.2 °F 56% 29.54 in 10.0 mi Calm Calm - N/A   Mostly Cloudy
3:42 PM 33.8 °F 30.8 °F 21.2 °F 60% 29.54 in 10.0 mi SSW 3.5 mph - N/A   Mostly Cloudy
4:02 PM 33.8 °F - 21.2 °F 60% 29.54 in 10.0 mi Calm Calm - N/A   Mostly Cloudy
4:22 PM 33.8 °F - 23.0 °F 65% 29.54 in 10.0 mi Calm Calm - N/A   Mostly Cloudy
4:42 PM 33.8 °F - 23.0 °F 65% 29.54 in 10.0 mi Calm Calm - N/A   Mostly Cloudy
5:02 PM 33.8 °F - 24.8 °F 70% 29.54 in 10.0 mi Calm Calm - N/A   Mostly Cloudy
5:22 PM 32.0 °F - 24.8 °F 75% 29.54 in 10.0 mi Calm Calm - N/A   Mostly Cloudy
5:43 PM 32.0 °F - 24.8 °F 75% 29.54 in 10.0 mi Calm Calm - N/A   Overcast
6:02 PM 30.2 °F - 26.6 °F 86% 29.55 in 10.0 mi Calm Calm - N/A   Overcast
6:23 PM 30.2 °F - 24.8 °F 80% 29.54 in 7.0 mi Calm Calm - N/A Snow Light Snow
6:42 PM 30.2 °F - 26.6 °F 86% 29.55 in 10.0 mi Calm Calm - N/A   Mostly Cloudy
7:02 PM 30.2 °F - 26.6 °F 86% 29.55 in 10.0 mi Calm Calm - N/A   Mostly Cloudy
7:22 PM 30.2 °F - 26.6 °F 86% 29.54 in 10.0 mi Calm Calm - N/A   Mostly Cloudy
7:42 PM 30.2 °F - 26.6 °F 86% 29.54 in 1.2 mi Calm Calm - N/A Snow Light Snow
8:03 PM 28.4 °F 23.3 °F 28.4 °F 100% 29.54 in 0.2 mi NNE 4.6 mph - N/A Snow Snow
8:23 PM 28.4 °F - 28.4 °F 100% 29.53 in 1.5 mi Calm Calm - 0.03 in Snow Light Snow
8:43 PM 28.4 °F - 26.6 °F 93% 29.53 in 10.0 mi Calm Calm - 0.03 in   Scattered Clouds
9:02 PM 28.4 °F - 26.6 °F 93% 29.53 in 10.0 mi Calm Calm - N/A   Scattered Clouds
9:22 PM 28.4 °F - 26.6 °F 93% 29.53 in 10.0 mi Calm Calm - N/A   Scattered Clouds
9:42 PM 28.4 °F - 26.6 °F 93% 29.53 in 10.0 mi Calm Calm - N/A   Scattered Clouds
10:02 PM 28.4 °F - 26.6 °F 93% 29.52 in 7.0 mi Calm Calm - N/A Snow Light Snow
10:23 PM 26.6 °F - 26.6 °F 100% 29.52 in 10.0 mi Calm Calm - N/A   Scattered Clouds
10:43 PM 26.6 °F - 26.6 °F 100% 29.52 in 10.0 mi Calm Calm - N/A   Scattered Clouds
11:03 PM 26.6 °F - 26.6 °F 100% 29.52 in 10.0 mi Calm Calm - N/A   Clear
11:22 PM 26.6 °F - 26.6 °F 100% 29.52 in 10.0 mi Calm Calm - N/A   Scattered Clouds
11:42 PM 26.6 °F - 26.6 °F 100% 29.52 in 10.0 mi Calm Calm - N/A   Mostly Cloudy